Theta_e
344 345 344 345 346 346 345 343 345 344 341 346 343 344 343 344 346 346 347 344 348 346 343 350 347 342 343 347 350 341 351 346 347 345 347 345 342 345 347 346 348 348 347
343 341 345 346 346 346 345 344 345 345 341 346 342 345 342 343 341 343 346 344 341 350 346 346 347 347 349 347 339 339 345 349 350 344 346 344 340 345 347 347 348 347 348
338 338 345 345 346 347 347 347 346 347 343 344 343 347 348 344 348 345 349 347 348 349 349 350 342 348 343 351 350 344 349 346 351 349 348 348 348 348 345 345 346 346 346
340 345 347 347 338 348 349 349 347 347 343 345 343 344 346 344 345 347 345 348 348 349 350 349 341 338 345 350 347 349 351 345 351 348 349 347 347 342 346 346 346 345 347
340 344 347 348 344 350 350 349 348 348 347 344 347 345 343 346 347 346 347 351 349 346 350 350 337 336 346 348 351 351 349 353 347 348 347 346 348 349 348 348 349 345 342
344 343 343 344 348 348 350 349 345 344 348 344 345 347 341 346 341 346 348 348 347 343 348 348 338 341 352 349 344 352 346 348 348 340 347 349 346 348 348 347 348 346 345
344 345 342 346 347 348 350 350 347 342 345 346 343 345 343 345 346 347 349 348 347 350 347 343 337 340 345 352 351 350 348 346 350 346 347 350 350 350 348 344 346 348 347
346 345 344 346 341 347 350 351 349 344 343 345 338 338 339 338 343 347 349 349 349 350 348 349 344 349 349 344 349 347 351 354 354 349 347 347 350 349 349 346 349 348 348
348 347 345 341 347 345 349 350 350 347 344 346 347 347 341 341 347 344 343 347 343 350 350 349 349 348 349 351 354 347 351 349 351 349 351 349 346 351 349 348 351 350 349
347 349 347 343 345 346 348 348 350 349 347 353 351 351 344 340 345 346 348 348 349 350 348 350 351 345 350 350 350 349 350 347 347 352 352 350 350 352 350 350 348 349 348
346 347 347 349 347 341 349 349 352 352 352 353 353 353 349 344 342 343 346 344 349 347 343 336 344 349 347 349 349 345 351 352 351 349 351 348 347 345 350 349 353 350 349
346 347 348 349 350 349 347 344 346 354 352 351 354 353 353 351 348 342 342 345 342 344 347 348 343 348 346 348 352 347 350 351 351 348 347 350 352 349 348 349 350 351 347
346 346 350 351 352 352 353 349 342 350 353 352 352 352 353 353 352 351 347 350 348 346 350 349 347 347 348 347 349 347 345 348 350 351 350 349 350 348 349 347 349 350 351
345 349 346 350 351 351 351 352 344 343 343 351 353 353 353 354 352 353 352 349 351 350 348 351 351 348 346 345 350 349 346 346 351 352 351 349 349 349 351 351 345 347 349
344 346 351 348 346 350 347 351 352 351 338 345 353 352 355 352 354 352 350 351 351 350 350 349 350 351 350 347 351 351 350 350 349 352 350 352 349 350 349 346 344 345 344
340 339 343 351 348 344 344 351 348 353 353 351 352 344 347 345 353 354 355 352 352 351 352 349 347 350 351 352 351 351 350 350 351 350 348 347 349 349 347 346 344 344 344
338 337 339 344 348 348 346 343 344 346 348 350 352 353 352 354 353 352 352 352 352 352 351 351 348 348 348 349 350 350 349 351 347 350 351 347 353 349 347 346 345 344 344
337 340 342 346 349 346 346 346 342 342 343 345 348 348 349 350 352 352 352 352 353 353 352 352 351 350 349 351 349 350 350 349 347 347 350 346 346 348 346 347 345 344 344
340 342 342 345 347 347 347 345 345 345 345 342 340 342 346 350 351 352 352 352 353 353 353 352 353 352 352 351 350 349 351 350 348 346 349 349 345 344 345 346 345 344 344
340 340 342 342 344 345 342 344 345 345 344 345 347 344 344 349 350 351 350 351 352 353 353 353 352 352 352 351 350 348 348 349 346 346 349 347 346 344 344 343 344 345 342
339 338 337 339 341 342 344 343 342 343 344 345 343 341 340 342 345 346 347 348 350 351 352 352 352 352 351 350 348 347 346 345 349 349 347 347 345 344 343 342 342 342 339
338 336 337 339 341 342 340 342 341 342 342 342 344 343 338 337 338 338 336 337 341 347 350 351 351 350 348 348 348 347 345 345 347 348 345 343 343 341 339 340 340 338 337
335 333 334 337 339 340 334 341 340 341 340 343 344 342 336 336 338 338 337 337 338 343 343 343 344 347 346 346 346 348 346 347 346 346 342 341 340 338 337 337 336 334 332
335 333 333 334 336 340 340 331 342 338 338 340 342 341 337 335 339 341 340 340 340 341 341 341 340 341 341 341 344 345 344 344 345 342 340 339 336 335 335 333 331 331 330
335 335 335 335 336 339 340 336 336 335 338 339 342 340 340 335 333 332 334 337 337 337 336 336 337 337 339 340 342 342 342 341 340 338 334 333 333 332 331 330 330 329 329
335 337 338 337 337 338 339 338 335 337 335 338 337 338 338 337 333 332 331 331 334 334 334 334 333 334 334 333 333 333 332 331 331 330 329 329 330 331 330 328 326 326 325
Wind_Speed
13 10 19 21 27 22 18 20 16 15 17 11 10 12 11 8 6 12 5 6 6 8 11 4 5 3 1 8 3 4 2 7 10 7 12 15 10 3 6 2 3 6 8
24 23 20 27 23 23 20 20 21 20 17 14 15 7 13 11 12 16 10 5 10 10 6 8 6 5 2 5 6 5 2 3 7 11 9 2 5 9 5 1 2 4 6
20 29 24 23 26 25 25 25 24 21 20 17 14 10 11 19 12 13 11 10 8 7 10 7 8 8 4 5 6 1 1 4 5 8 6 4 7 11 2 1 2 4 11
13 31 32 26 13 27 26 24 25 23 21 22 20 13 12 13 9 14 9 13 10 9 8 6 8 8 8 6 2 1 3 3 5 3 3 7 7 6 6 8 5 5 5
33 24 29 25 24 33 30 23 21 23 19 26 17 18 18 8 10 12 12 12 11 11 11 10 6 5 11 8 7 3 5 3 1 2 3 4 10 5 10 9 5 8 3
28 18 18 22 26 29 27 24 17 20 24 21 24 21 18 17 16 15 13 14 11 8 12 11 6 9 6 6 8 6 3 5 3 5 2 7 9 11 10 12 12 9 4
23 17 25 30 23 31 31 28 19 20 24 22 27 21 23 20 14 14 13 16 14 13 8 10 7 8 8 6 7 4 6 2 2 6 5 6 5 9 9 8 11 12 9
27 22 28 12 16 26 34 30 23 21 25 23 22 24 22 20 18 16 14 10 13 18 17 14 8 7 6 5 4 5 3 8 5 7 6 6 3 5 11 9 13 13 9
7 12 31 18 29 30 28 32 25 21 24 25 22 20 20 20 16 15 12 10 11 11 20 13 14 8 7 7 10 5 3 5 5 3 6 4 2 5 5 10 7 7 11
2 1 22 22 22 25 28 30 27 24 24 25 23 23 20 20 20 19 18 16 11 11 8 14 12 8 11 9 12 11 10 9 8 5 7 8 5 5 7 5 6 7 11
1 4 4 12 19 17 18 28 29 24 23 25 24 22 20 20 22 24 20 18 15 19 23 11 8 10 11 12 16 12 10 7 6 8 6 3 4 4 7 7 5 9 9
1 3 5 6 7 12 28 23 39 32 26 23 30 25 23 22 18 20 23 18 21 17 11 9 12 15 13 16 18 11 10 11 10 7 7 6 7 9 5 11 8 5 11
4 2 3 3 2 3 2 24 18 16 26 30 28 28 26 23 25 20 14 21 19 18 17 18 18 17 15 17 15 13 13 14 9 9 8 11 11 12 8 10 10 7 5
4 4 1 3 3 6 3 3 15 31 25 14 28 29 27 26 22 24 22 16 23 21 20 22 20 18 17 19 17 15 14 12 10 11 14 11 9 10 9 11 10 10 10
6 5 5 4 4 2 7 5 3 11 19 19 20 23 24 24 25 22 21 21 20 22 22 22 23 21 19 18 19 20 17 15 12 13 13 9 10 12 13 13 11 11 12
6 3 3 5 8 9 8 8 11 11 15 16 14 16 25 18 28 24 22 25 25 24 23 23 24 26 25 19 20 21 19 15 14 13 12 15 15 13 14 15 12 12 13
8 4 2 3 4 9 6 6 11 12 13 16 19 18 20 15 22 27 25 25 28 29 29 27 25 27 28 25 25 25 24 21 19 17 14 12 11 12 13 12 12 13 10
9 6 3 2 5 6 3 4 7 8 11 12 10 14 16 22 21 22 23 26 28 31 32 31 30 27 29 28 23 25 26 26 24 20 20 20 20 17 13 12 14 14 10
10 8 5 3 2 3 2 5 6 9 9 8 13 14 13 17 20 22 23 27 27 30 33 34 33 32 31 30 27 26 26 26 25 23 24 21 19 17 16 15 16 14 10
11 8 6 4 2 3 5 8 7 9 9 9 10 10 16 18 17 18 23 23 27 28 30 34 36 35 34 34 30 28 25 25 23 27 24 23 21 19 17 15 15 13 9
11 8 5 4 2 1 2 6 10 12 11 9 11 11 12 15 17 18 21 18 19 22 26 29 31 34 35 35 31 27 27 25 26 26 26 27 24 18 15 16 15 12 8
10 8 6 4 2 2 2 3 6 8 13 12 12 13 9 11 14 17 16 15 20 21 15 21 26 27 25 29 27 27 27 28 26 27 24 18 18 14 11 13 10 10 11
9 7 6 4 3 5 8 3 7 7 10 10 10 11 7 9 11 16 18 19 17 17 18 21 21 21 18 19 24 27 29 31 31 23 20 15 13 12 11 11 13 14 14
9 6 5 4 3 5 5 8 4 7 8 11 8 6 6 6 5 5 8 11 14 15 17 20 22 21 23 23 21 20 25 28 29 22 20 17 14 14 15 14 14 14 13
9 8 7 5 4 3 4 6 6 7 6 8 11 5 6 2 2 2 2 4 4 2 1 6 9 14 19 21 26 29 27 25 21 22 19 18 16 16 14 13 11 10 12
11 10 8 6 5 4 4 10 8 8 6 8 12 13 12 9 5 4 4 6 8 9 11 13 11 13 14 14 12 15 16 17 17 15 13 13 13 13 12 10 9 11 12
Wind_Direction
197 165 180 173 166 164 173 177 178 186 188 201 167 186 176 178 177 170 199 207 194 225 186 132 283 291 214 249 274 216 296 339 318 323 348 334 276 225 207 43 52 112 128
171 208 187 181 173 171 178 179 189 193 182 192 173 202 198 188 209 221 204 222 201 222 188 214 219 274 197 320 264 253 238 1 322 344 10 26 128 347 352 127 80 6 218
183 189 211 180 170 177 185 187 185 198 182 179 202 215 196 211 207 207 166 195 211 229 191 234 219 232 159 278 302 170 331 317 349 360 31 350 346 349 321 338 13 327 74
194 212 199 191 154 189 189 185 187 203 188 183 199 211 201 198 217 198 216 212 219 187 248 228 245 231 182 229 156 195 187 17 19 359 347 2 359 14 337 346 333 323 63
205 209 208 190 188 172 181 184 187 202 195 190 190 206 200 248 202 200 204 203 197 203 205 235 238 210 183 199 182 186 201 190 353 60 343 324 320 324 317 343 320 313 57
170 198 214 234 197 178 179 189 186 191 191 198 194 195 200 227 208 210 214 202 222 224 196 232 214 179 193 198 188 201 180 240 251 282 10 319 354 342 342 327 359 4 299
171 201 187 200 184 178 180 188 187 186 190 202 195 199 201 213 208 205 203 209 215 224 231 214 208 181 199 178 211 214 226 276 297 287 270 299 332 340 305 329 319 333 17
192 172 193 169 223 196 179 183 189 188 189 202 200 209 208 207 210 211 204 239 222 208 229 222 199 197 217 204 220 222 195 252 258 296 321 250 320 348 341 292 326 332 335
66 166 192 172 223 195 187 190 193 195 193 196 202 204 203 198 207 205 226 227 222 252 199 206 186 181 229 229 242 242 247 259 287 292 318 306 220 336 303 326 298 301 319
340 213 173 159 222 219 202 193 201 203 194 191 202 204 206 202 197 204 221 215 228 237 253 173 177 207 222 228 235 238 258 247 255 261 262 278 240 280 320 295 321 307 306
276 227 251 198 195 184 228 185 193 200 193 193 202 198 208 206 201 204 216 208 234 248 235 217 197 223 219 231 257 241 246 241 264 249 269 267 321 255 301 311 264 302 312
126 248 233 266 257 236 211 251 236 189 191 200 204 200 208 202 209 209 211 214 228 235 240 249 232 221 218 226 248 251 217 249 256 275 249 222 258 275 274 298 293 292 304
132 5 26 300 221 266 45 202 231 253 192 199 201 210 207 208 205 219 218 213 222 229 217 230 230 224 224 231 245 249 229 231 229 260 273 251 236 257 258 264 265 276 269
183 165 292 343 332 273 268 169 196 255 225 239 203 206 211 212 206 210 223 210 220 230 224 219 229 234 243 229 228 250 246 239 224 240 256 266 253 240 261 276 282 260 283
181 193 206 261 277 300 278 310 211 209 228 255 214 212 200 219 222 212 213 226 228 230 236 230 225 233 238 236 226 233 245 252 237 236 248 250 254 245 255 272 276 281 290
167 184 217 270 303 290 237 239 243 216 216 222 227 218 236 251 219 224 214 215 224 228 233 235 228 226 230 234 236 243 245 243 245 252 251 246 248 254 263 262 267 277 282
153 164 209 266 269 282 306 264 261 250 246 237 226 232 220 204 211 223 224 224 228 229 231 235 235 230 233 223 229 241 244 236 245 248 248 242 243 259 249 248 265 281 287
147 151 164 214 282 341 299 314 329 290 274 257 252 258 239 228 228 230 232 235 233 234 235 232 234 236 235 236 230 233 241 245 248 244 242 248 239 244 256 254 263 279 287
152 144 148 168 214 222 224 267 312 313 331 332 271 257 265 253 242 243 246 240 238 239 240 238 237 236 239 238 236 235 238 244 249 239 237 238 237 245 248 251 261 265 265
156 152 146 142 259 277 245 243 248 285 303 305 303 285 255 251 252 249 250 244 244 243 244 242 240 240 242 244 240 237 236 242 227 234 233 237 245 249 243 237 250 244 264
147 149 144 149 174 209 245 267 256 241 248 262 274 276 278 254 244 246 249 251 250 248 249 249 246 242 241 243 244 238 230 226 229 233 235 237 240 237 230 232 224 234 216
152 157 156 149 180 246 278 275 282 260 240 254 265 273 273 256 247 246 244 248 248 251 255 252 253 253 243 247 249 236 233 227 228 232 237 222 219 215 212 220 207 191 169
163 169 160 164 218 280 314 276 259 280 242 236 252 268 283 296 276 262 258 260 264 258 255 259 263 263 258 257 256 248 236 221 220 221 225 209 200 198 193 190 170 161 151
174 194 186 198 215 246 276 309 287 287 256 244 241 264 278 315 294 275 270 263 253 249 252 259 261 260 260 258 250 234 214 213 205 204 190 182 177 165 161 162 161 157 154
193 208 213 225 222 231 254 313 304 295 270 229 213 235 271 288 89 63 71 70 63 78 194 252 261 260 252 236 224 215 216 219 210 178 159 156 159 157 164 168 173 176 179
209 210 214 231 230 248 276 285 301 297 275 254 238 235 236 220 191 133 93 81 79 85 90 92 85 95 94 103 108 112 114 112 118 132 139 149 161 174 183 177 168 169 189